Time,TemperatureF,DewpointF,PressureIn,WindDirection,WindDirectionDegrees,WindSpeedMPH,WindSpeedGustMPH,Humidity,HourlyPrecipIn,Conditions,Clouds,dailyrainin,SoftwareType,DateUTC
2013-06-04 00:01:00,57.6,50.4,30.06,ENE,67,0.0,0.0,77,0.00,,,0.00,WUHU21623XXSP,2013-06-04 04:01:00,
2013-06-04 00:06:00,57.4,50.2,30.06,ENE,67,0.0,0.0,77,0.00,,,0.00,WUHU21623XXSP,2013-06-04 04:06:00,
2013-06-04 00:11:00,57.0,50.2,30.07,ENE,67,0.0,0.0,78,0.00,,,0.00,WUHU21623XXSP,2013-06-04 04:11:00,
2013-06-04 00:16:00,56.8,50.0,30.06,ENE,67,0.0,0.0,78,0.00,,,0.00,WUHU21623XXSP,2013-06-04 04:16:00,
2013-06-04 00:21:00,56.8,50.4,30.06,ENE,67,0.0,0.0,79,0.00,,,0.00,WUHU21623XXSP,2013-06-04 04:21:00,
2013-06-04 00:26:00,56.5,50.0,30.07,ENE,67,0.0,0.0,79,0.00,,,0.00,WUHU21623XXSP,2013-06-04 04:26:00,
2013-06-04 00:31:00,56.5,50.4,30.07,ENE,67,0.0,0.0,80,0.00,,,0.00,WUHU21623XXSP,2013-06-04 04:31:00,
2013-06-04 00:37:00,56.5,50.4,30.07,ENE,67,0.0,0.0,80,0.00,,,0.00,WUHU21623XXSP,2013-06-04 04:37:00,
2013-06-04 00:42:00,56.3,50.2,30.07,ENE,67,0.0,0.0,80,0.00,,,0.00,WUHU21623XXSP,2013-06-04 04:42:00,
2013-06-04 00:47:00,56.1,50.2,30.07,ENE,67,0.0,0.0,80,0.00,,,0.00,WUHU21623XXSP,2013-06-04 04:47:00,
2013-06-04 00:52:00,55.6,50.1,30.06,ENE,67,0.0,0.0,81,0.00,,,0.00,WUHU21623XXSP,2013-06-04 04:52:00,
2013-06-04 00:57:00,55.2,49.4,30.06,ENE,67,0.0,0.0,81,0.00,,,0.00,WUHU21623XXSP,2013-06-04 04:57:00,
2013-06-04 01:02:00,55.0,49.6,30.07,ENE,67,0.0,0.0,82,0.00,,,0.00,WUHU21623XXSP,2013-06-04 05:02:00,
2013-06-04 01:07:00,55.0,49.6,30.07,ENE,67,0.0,0.0,82,0.00,,,0.00,WUHU21623XXSP,2013-06-04 05:07:00,
2013-06-04 01:12:00,54.5,49.6,30.07,ENE,67,0.0,0.0,83,0.00,,,0.00,WUHU21623XXSP,2013-06-04 05:12:00,
2013-06-04 01:17:00,54.5,49.4,30.07,ENE,67,0.0,0.0,83,0.00,,,0.00,WUHU21623XXSP,2013-06-04 05:17:00,
2013-06-04 01:22:00,54.3,48.9,30.07,ENE,67,0.0,0.0,82,0.00,,,0.00,WUHU21623XXSP,2013-06-04 05:22:00,
2013-06-04 01:27:00,54.1,48.8,30.07,ENE,67,0.0,0.0,82,0.00,,,0.00,WUHU21623XXSP,2013-06-04 05:27:00,
2013-06-04 01:32:00,54.0,48.9,30.08,ENE,67,0.0,0.0,83,0.00,,,0.00,WUHU21623XXSP,2013-06-04 05:32:00,
2013-06-04 01:37:00,53.8,48.7,30.08,ENE,67,0.0,0.0,83,0.00,,,0.00,WUHU21623XXSP,2013-06-04 05:37:00,
2013-06-04 01:42:00,53.8,48.4,30.08,ENE,67,0.0,0.0,82,0.00,,,0.00,WUHU21623XXSP,2013-06-04 05:42:00,
2013-06-04 01:47:00,53.6,48.3,30.08,ENE,67,0.0,0.0,82,0.00,,,0.00,WUHU21623XXSP,2013-06-04 05:47:00,
2013-06-04 01:52:00,53.4,47.8,30.08,ENE,67,0.0,0.0,81,0.00,,,0.00,WUHU21623XXSP,2013-06-04 05:52:00,
2013-06-04 01:57:00,53.4,47.5,30.08,ENE,67,0.0,0.0,80,0.00,,,0.00,WUHU21623XXSP,2013-06-04 05:57:00,
2013-06-04 02:02:00,53.4,47.1,30.08,ENE,67,0.0,0.0,79,0.00,,,0.00,WUHU21623XXSP,2013-06-04 06:02:00,
2013-06-04 02:07:00,53.4,46.8,30.08,ENE,67,0.0,0.0,78,0.00,,,0.00,WUHU21623XXSP,2013-06-04 06:07:00,
2013-06-04 02:12:00,53.4,45.7,30.08,ENE,67,0.0,0.0,74,0.00,,,0.00,WUHU21623XXSP,2013-06-04 06:12:00,
2013-06-04 02:17:00,53.2,44.8,30.08,NE,45,0.0,0.0,73,0.00,,,0.00,WUHU21623XXSP,2013-06-04 06:17:00,
2013-06-04 02:22:00,53.1,44.6,30.08,NE,45,0.0,0.0,73,0.00,,,0.00,WUHU21623XXSP,2013-06-04 06:22:00,
2013-06-04 02:27:00,52.9,43.8,30.08,NE,45,0.0,0.0,71,0.00,,,0.00,WUHU21623XXSP,2013-06-04 06:27:00,
2013-06-04 02:32:00,52.9,43.8,30.08,NE,45,0.0,0.0,71,0.00,,,0.00,WUHU21623XXSP,2013-06-04 06:32:00,
2013-06-04 02:37:00,52.7,42.8,30.08,NE,45,0.0,0.0,69,0.00,,,0.00,WUHU21623XXSP,2013-06-04 06:37:00,
2013-06-04 02:42:00,52.7,42.8,30.09,NE,45,0.0,0.0,69,0.00,,,0.00,WUHU21623XXSP,2013-06-04 06:42:00,
2013-06-04 02:47:00,52.5,42.3,30.09,NE,45,0.0,0.0,68,0.00,,,0.00,WUHU21623XXSP,2013-06-04 06:47:00,
2013-06-04 02:52:00,52.3,42.1,30.08,NE,45,0.0,0.0,68,0.00,,,0.00,WUHU21623XXSP,2013-06-04 06:52:00,
2013-06-04 02:57:00,52.3,42.1,30.08,NE,45,0.0,0.0,68,0.00,,,0.00,WUHU21623XXSP,2013-06-04 06:57:00,
2013-06-04 03:02:00,52.0,41.9,30.08,NE,45,0.0,0.0,68,0.00,,,0.00,WUHU21623XXSP,2013-06-04 07:02:00,
2013-06-04 03:07:00,52.0,41.8,30.09,NE,45,0.0,0.0,68,0.00,,,0.00,WUHU21623XXSP,2013-06-04 07:07:00,
2013-06-04 03:12:00,51.6,41.8,30.09,NE,45,0.0,0.0,69,0.00,,,0.00,WUHU21623XXSP,2013-06-04 07:12:00,
2013-06-04 03:17:00,51.6,41.4,30.09,NE,45,0.0,0.0,68,0.00,,,0.00,WUHU21623XXSP,2013-06-04 07:17:00,
2013-06-04 03:22:00,51.6,41.8,30.09,NE,45,0.0,0.0,69,0.00,,,0.00,WUHU21623XXSP,2013-06-04 07:22:00,
2013-06-04 03:27:00,51.4,41.3,30.09,NE,45,0.0,0.0,68,0.00,,,0.00,WUHU21623XXSP,2013-06-04 07:27:00,
2013-06-04 03:32:00,51.4,41.3,30.09,NE,45,0.0,0.0,68,0.00,,,0.00,WUHU21623XXSP,2013-06-04 07:32:00,
2013-06-04 03:37:00,51.4,41.3,30.09,NE,45,0.0,0.0,68,0.00,,,0.00,WUHU21623XXSP,2013-06-04 07:37:00,
2013-06-04 03:42:00,51.3,41.1,30.09,NE,45,0.0,0.0,68,0.00,,,0.00,WUHU21623XXSP,2013-06-04 07:42:00,
2013-06-04 03:47:00,51.1,40.9,30.09,NE,45,0.0,0.0,68,0.00,,,0.00,WUHU21623XXSP,2013-06-04 07:47:00,
2013-06-04 03:52:00,50.9,41.1,30.09,NE,45,0.0,0.0,69,0.00,,,0.00,WUHU21623XXSP,2013-06-04 07:52:00,
2013-06-04 03:57:00,50.9,41.1,30.09,NE,45,0.0,0.0,69,0.00,,,0.00,WUHU21623XXSP,2013-06-04 07:57:00,
2013-06-04 04:02:00,50.7,40.9,30.10,NE,45,0.0,0.0,69,0.00,,,0.00,WUHU21623XXSP,2013-06-04 08:02:00,
2013-06-04 04:07:00,50.7,40.9,30.10,NE,45,0.0,0.0,69,0.00,,,0.00,WUHU21623XXSP,2013-06-04 08:07:00,
2013-06-04 04:12:00,50.5,40.8,30.10,NE,45,0.0,0.0,69,0.00,,,0.00,WUHU21623XXSP,2013-06-04 08:12:00,
2013-06-04 04:17:00,50.2,40.4,30.10,NE,45,0.0,0.0,69,0.00,,,0.00,WUHU21623XXSP,2013-06-04 08:17:00,
2013-06-04 04:22:00,50.2,40.4,30.10,NE,45,0.0,0.0,69,0.00,,,0.00,WUHU21623XXSP,2013-06-04 08:22:00,
2013-06-04 04:27:00,49.8,40.5,30.11,NE,45,0.0,0.0,70,0.00,,,0.00,WUHU21623XXSP,2013-06-04 08:27:00,
2013-06-04 04:32:00,49.8,40.5,30.11,NE,45,0.0,0.0,70,0.00,,,0.00,WUHU21623XXSP,2013-06-04 08:32:00,
2013-06-04 04:37:00,49.8,40.5,30.11,NE,45,0.0,0.0,70,0.00,,,0.00,WUHU21623XXSP,2013-06-04 08:37:00,
2013-06-04 04:42:00,49.8,40.5,30.11,NE,45,0.0,0.0,70,0.00,,,0.00,WUHU21623XXSP,2013-06-04 08:42:00,
2013-06-04 04:47:00,49.6,40.8,30.11,NE,45,0.0,0.0,71,0.00,,,0.00,WUHU21623XXSP,2013-06-04 08:47:00,
2013-06-04 04:52:00,49.6,40.6,30.11,NE,45,0.0,0.0,71,0.00,,,0.00,WUHU21623XXSP,2013-06-04 08:52:00,
2013-06-04 04:57:00,49.6,41.0,30.11,NE,45,0.0,0.0,72,0.00,,,0.00,WUHU21623XXSP,2013-06-04 08:57:00,
2013-06-04 05:02:00,49.6,41.3,30.11,NE,45,0.0,0.0,73,0.00,,,0.00,WUHU21623XXSP,2013-06-04 09:02:00,
2013-06-04 05:07:00,49.6,41.3,30.11,NE,45,0.0,0.0,73,0.00,,,0.00,WUHU21623XXSP,2013-06-04 09:07:00,
2013-06-04 05:12:00,49.3,40.9,30.11,NE,45,0.0,0.0,74,0.00,,,0.00,WUHU21623XXSP,2013-06-04 09:12:00,
2013-06-04 05:17:00,49.1,41.8,30.11,NE,45,0.0,0.0,76,0.00,,,0.00,WUHU21623XXSP,2013-06-04 09:17:00,
2013-06-04 05:22:00,48.9,41.6,30.12,NE,45,0.0,0.0,76,0.00,,,0.00,WUHU21623XXSP,2013-06-04 09:22:00,
2013-06-04 05:27:00,48.9,41.6,30.12,NE,45,0.0,0.0,76,0.00,,,0.00,WUHU21623XXSP,2013-06-04 09:27:00,
2013-06-04 05:32:00,48.7,41.8,30.12,NE,45,0.0,0.0,77,0.00,,,0.00,WUHU21623XXSP,2013-06-04 09:32:00,
2013-06-04 05:37:00,48.7,41.8,30.12,NE,45,0.0,0.0,77,0.00,,,0.00,WUHU21623XXSP,2013-06-04 09:37:00,
2013-06-04 05:42:00,48.7,41.8,30.12,NE,45,0.0,0.0,77,0.00,,,0.00,WUHU21623XXSP,2013-06-04 09:42:00,
2013-06-04 05:47:00,48.2,41.6,30.12,NE,45,0.0,0.0,78,0.00,,,0.00,WUHU21623XXSP,2013-06-04 09:47:00,
2013-06-04 05:52:00,47.8,41.6,30.12,NE,45,0.0,0.0,79,0.00,,,0.00,WUHU21623XXSP,2013-06-04 09:52:00,
2013-06-04 05:57:00,47.5,41.6,30.12,NE,45,0.0,0.0,80,0.00,,,0.00,WUHU21623XXSP,2013-06-04 09:57:00,
2013-06-04 06:02:00,47.5,41.6,30.13,NE,45,0.0,0.0,80,0.00,,,0.00,WUHU21623XXSP,2013-06-04 10:02:00,
2013-06-04 06:07:00,47.5,41.6,30.13,NE,45,0.0,0.0,80,0.00,,,0.00,WUHU21623XXSP,2013-06-04 10:07:00,
2013-06-04 06:12:00,47.5,41.6,30.13,NE,45,0.0,0.0,81,0.00,,,0.00,WUHU21623XXSP,2013-06-04 10:12:00,
2013-06-04 06:17:00,47.5,41.9,30.13,NE,45,0.0,0.0,81,0.00,,,0.00,WUHU21623XXSP,2013-06-04 10:17:00,
2013-06-04 06:22:00,47.7,42.1,30.13,NE,45,0.0,0.0,81,0.00,,,0.00,WUHU21623XXSP,2013-06-04 10:22:00,
2013-06-04 06:27:00,47.8,42.2,30.13,NE,45,0.0,0.0,81,0.00,,,0.00,WUHU21623XXSP,2013-06-04 10:27:00,
2013-06-04 06:32:00,48.0,42.4,30.13,NE,45,0.0,0.0,81,0.00,,,0.00,WUHU21623XXSP,2013-06-04 10:32:00,
2013-06-04 06:37:00,47.8,42.2,30.13,NE,45,0.0,0.0,81,0.00,,,0.00,WUHU21623XXSP,2013-06-04 10:37:00,
2013-06-04 06:42:00,47.8,42.2,30.13,NE,45,0.0,0.0,81,0.00,,,0.00,WUHU21623XXSP,2013-06-04 10:42:00,
2013-06-04 06:47:00,47.5,42.2,30.13,NE,45,0.0,0.0,82,0.00,,,0.00,WUHU21623XXSP,2013-06-04 10:47:00,
2013-06-04 06:52:00,47.5,42.2,30.13,NE,45,0.0,0.0,82,0.00,,,0.00,WUHU21623XXSP,2013-06-04 10:52:00,
2013-06-04 06:57:00,47.5,42.2,30.13,NE,45,0.0,0.0,82,0.00,,,0.00,WUHU21623XXSP,2013-06-04 10:57:00,
2013-06-04 07:02:00,47.5,42.2,30.13,NE,45,0.0,0.0,82,0.00,,,0.00,WUHU21623XXSP,2013-06-04 11:02:00,
2013-06-04 07:07:00,47.5,42.2,30.13,NE,45,0.0,0.0,82,0.00,,,0.00,WUHU21623XXSP,2013-06-04 11:07:00,
2013-06-04 07:12:00,48.0,42.7,30.14,NE,45,0.0,0.0,82,0.00,,,0.00,WUHU21623XXSP,2013-06-04 11:12:00,
2013-06-04 07:17:00,48.0,42.7,30.14,NE,45,0.0,0.0,82,0.00,,,0.00,WUHU21623XXSP,2013-06-04 11:17:00,
2013-06-04 07:22:00,48.0,42.7,30.14,NE,45,0.0,0.0,82,0.00,,,0.00,WUHU21623XXSP,2013-06-04 11:22:00,
2013-06-04 07:27:00,48.4,42.9,30.15,NE,45,0.0,0.0,82,0.00,,,0.00,WUHU21623XXSP,2013-06-04 11:27:00,
2013-06-04 07:32:00,48.4,42.7,30.15,NE,45,0.0,0.0,81,0.00,,,0.00,WUHU21623XXSP,2013-06-04 11:32:00,
2013-06-04 07:37:00,48.4,42.7,30.15,NE,45,0.0,0.0,81,0.00,,,0.00,WUHU21623XXSP,2013-06-04 11:37:00,
2013-06-04 07:42:00,48.7,43.1,30.15,NE,45,0.0,0.0,81,0.00,,,0.00,WUHU21623XXSP,2013-06-04 11:42:00,
2013-06-04 07:47:00,48.9,43.3,30.15,NE,45,0.0,0.0,81,0.00,,,0.00,WUHU21623XXSP,2013-06-04 11:47:00,
2013-06-04 07:52:00,49.1,43.5,30.15,NE,45,0.0,0.0,81,0.00,,,0.00,WUHU21623XXSP,2013-06-04 11:52:00,
2013-06-04 07:57:00,49.3,43.3,30.15,NE,45,0.0,0.0,80,0.00,,,0.00,WUHU21623XXSP,2013-06-04 11:57:00,
2013-06-04 08:02:00,49.8,43.5,30.16,NE,45,0.0,0.0,79,0.00,,,0.00,WUHU21623XXSP,2013-06-04 12:02:00,
2013-06-04 08:07:00,50.0,43.7,30.16,NE,45,0.0,0.0,79,0.00,,,0.00,WUHU21623XXSP,2013-06-04 12:07:00,
2013-06-04 08:12:00,50.5,43.9,30.15,NE,45,0.0,0.0,78,0.00,,,0.00,WUHU21623XXSP,2013-06-04 12:12:00,
2013-06-04 08:17:00,50.7,44.1,30.16,NE,45,0.0,0.0,78,0.00,,,0.00,WUHU21623XXSP,2013-06-04 12:17:00,
2013-06-04 08:23:00,50.9,44.3,30.16,NE,45,0.0,0.0,78,0.00,,,0.00,WUHU21623XXSP,2013-06-04 12:23:00,
2013-06-04 08:28:00,51.4,44.5,30.16,NE,45,0.0,0.0,77,0.00,,,0.00,WUHU21623XXSP,2013-06-04 12:28:00,
2013-06-04 08:33:00,51.4,44.5,30.16,NE,45,0.0,0.0,77,0.00,,,0.00,WUHU21623XXSP,2013-06-04 12:33:00,
2013-06-04 08:38:00,52.3,44.7,30.16,NE,45,0.0,0.0,75,0.00,,,0.00,WUHU21623XXSP,2013-06-04 12:38:00,
2013-06-04 08:43:00,52.9,45.2,30.16,NE,45,0.0,0.0,75,0.00,,,0.00,WUHU21623XXSP,2013-06-04 12:43:00,
2013-06-04 08:48:00,53.4,43.7,30.16,NE,45,0.0,0.0,71,0.00,,,0.00,WUHU21623XXSP,2013-06-04 12:48:00,
2013-06-04 08:53:00,53.8,43.8,30.16,NE,45,0.0,0.0,69,0.00,,,0.00,WUHU21623XXSP,2013-06-04 12:53:00,
2013-06-04 08:58:00,54.3,44.0,30.16,NE,45,0.0,0.0,68,0.00,,,0.00,WUHU21623XXSP,2013-06-04 12:58:00,
2013-06-04 09:03:00,54.7,44.4,30.16,NE,45,0.0,0.0,69,0.00,,,0.00,WUHU21623XXSP,2013-06-04 13:03:00,
2013-06-04 09:08:00,55.0,44.1,30.16,NE,45,0.0,0.0,67,0.00,,,0.00,WUHU21623XXSP,2013-06-04 13:08:00,
2013-06-04 09:12:00,55.6,44.8,30.16,NE,45,0.0,0.0,67,0.00,,,0.00,WUHU21623XXSP,2013-06-04 13:12:00,
2013-06-04 09:17:00,55.9,44.4,30.17,NE,45,0.0,0.0,66,0.00,,,0.00,WUHU21623XXSP,2013-06-04 13:17:00,
2013-06-04 09:22:00,56.8,45.2,30.17,NE,45,0.0,0.0,65,0.00,,,0.00,WUHU21623XXSP,2013-06-04 13:22:00,
2013-06-04 09:27:00,57.9,45.0,30.17,NE,45,0.0,0.0,63,0.00,,,0.00,WUHU21623XXSP,2013-06-04 13:27:00,
2013-06-04 09:32:00,57.9,45.4,30.17,NE,45,0.0,0.0,63,0.00,,,0.00,WUHU21623XXSP,2013-06-04 13:32:00,
2013-06-04 09:37:00,59.5,46.6,30.17,NE,45,0.0,0.0,58,0.00,,,0.00,WUHU21623XXSP,2013-06-04 13:37:00,
2013-06-04 09:42:00,59.7,45.4,30.17,NE,45,0.0,0.0,59,0.00,,,0.00,WUHU21623XXSP,2013-06-04 13:42:00,
2013-06-04 09:47:00,60.1,45.7,30.17,NE,45,0.0,0.0,59,0.00,,,0.00,WUHU21623XXSP,2013-06-04 13:47:00,
2013-06-04 09:52:00,60.6,44.8,30.18,NE,45,0.0,0.0,56,0.00,,,0.00,WUHU21623XXSP,2013-06-04 13:52:00,
2013-06-04 09:57:00,61.5,45.2,30.18,NE,45,0.0,0.0,55,0.00,,,0.00,WUHU21623XXSP,2013-06-04 13:57:00,
2013-06-04 10:02:00,62.8,45.8,30.18,NE,45,0.0,0.0,53,0.00,,,0.00,WUHU21623XXSP,2013-06-04 14:02:00,
2013-06-04 10:07:00,63.1,44.7,30.17,NE,45,1.6,1.6,51,0.00,,,0.00,WUHU21623XXSP,2013-06-04 14:07:00,
2013-06-04 10:12:00,63.7,45.6,30.17,NE,45,0.0,1.6,52,0.00,,,0.00,WUHU21623XXSP,2013-06-04 14:12:00,
2013-06-04 10:17:00,64.2,45.2,30.17,NE,45,0.0,0.0,50,0.00,,,0.00,WUHU21623XXSP,2013-06-04 14:17:00,
2013-06-04 10:22:00,63.7,44.1,30.17,NE,45,0.0,0.0,49,0.00,,,0.00,WUHU21623XXSP,2013-06-04 14:22:00,
2013-06-04 10:27:00,64.0,43.8,30.17,NNE,22,1.8,2.0,48,0.00,,,0.00,WUHU21623XXSP,2013-06-04 14:27:00,
2013-06-04 10:32:00,63.7,43.5,30.17,NE,45,3.4,3.4,48,0.00,,,0.00,WUHU21623XXSP,2013-06-04 14:32:00,
2013-06-04 10:37:00,62.8,43.3,30.17,NE,45,0.4,3.4,49,0.00,,,0.00,WUHU21623XXSP,2013-06-04 14:37:00,
2013-06-04 10:42:00,63.3,44.3,30.17,NE,45,1.6,1.8,50,0.00,,,0.00,WUHU21623XXSP,2013-06-04 14:42:00,
2013-06-04 10:47:00,63.7,44.7,30.17,NE,45,2.9,2.9,50,0.00,,,0.00,WUHU21623XXSP,2013-06-04 14:47:00,
2013-06-04 10:53:00,63.3,43.8,30.17,NE,45,0.7,2.9,49,0.00,,,0.00,WUHU21623XXSP,2013-06-04 14:53:00,
2013-06-04 10:58:00,64.0,45.5,30.17,ENE,67,0.0,2.2,51,0.00,,,0.00,WUHU21623XXSP,2013-06-04 14:58:00,
2013-06-04 11:03:00,64.0,45.0,30.17,ENE,67,0.0,0.0,50,0.00,,,0.00,WUHU21623XXSP,2013-06-04 15:03:00,
2013-06-04 11:08:00,64.0,44.4,30.17,NE,45,0.0,0.0,49,0.00,,,0.00,WUHU21623XXSP,2013-06-04 15:08:00,
2013-06-04 11:13:00,64.2,45.6,30.17,NE,45,0.0,0.0,51,0.00,,,0.00,WUHU21623XXSP,2013-06-04 15:13:00,
2013-06-04 11:18:00,64.6,44.3,30.16,NE,45,1.8,2.7,48,0.00,,,0.00,WUHU21623XXSP,2013-06-04 15:18:00,
2013-06-04 11:23:00,64.2,44.6,30.16,NE,45,0.9,2.7,49,0.00,,,0.00,WUHU21623XXSP,2013-06-04 15:23:00,
2013-06-04 11:28:00,64.0,43.8,30.17,NE,45,0.0,2.2,48,0.00,,,0.00,WUHU21623XXSP,2013-06-04 15:28:00,
2013-06-04 11:32:00,64.6,45.5,30.17,NE,45,0.0,2.2,50,0.00,,,0.00,WUHU21623XXSP,2013-06-04 15:32:00,
2013-06-04 11:37:00,64.8,44.9,30.16,NE,45,0.0,0.0,49,0.00,,,0.00,WUHU21623XXSP,2013-06-04 15:37:00,
2013-06-04 11:42:00,65.3,44.5,30.16,NE,45,0.0,0.0,47,0.00,,,0.00,WUHU21623XXSP,2013-06-04 15:42:00,
2013-06-04 11:47:00,65.3,44.5,30.16,NE,45,1.1,1.1,47,0.00,,,0.00,WUHU21623XXSP,2013-06-04 15:47:00,
2013-06-04 11:52:00,65.5,44.6,30.16,NE,45,3.6,3.6,47,0.00,,,0.00,WUHU21623XXSP,2013-06-04 15:52:00,
2013-06-04 11:57:00,65.1,45.4,30.16,NE,45,1.6,3.6,49,0.00,,,0.00,WUHU21623XXSP,2013-06-04 15:57:00,
2013-06-04 12:02:00,65.8,44.4,30.16,East,90,2.7,2.7,46,0.00,,,0.00,WUHU21623XXSP,2013-06-04 16:02:00,
2013-06-04 12:07:00,66.0,44.6,30.15,ENE,67,2.0,2.7,46,0.00,,,0.00,WUHU21623XXSP,2013-06-04 16:07:00,
2013-06-04 12:12:00,65.8,44.4,30.15,ENE,67,0.0,2.0,46,0.00,,,0.00,WUHU21623XXSP,2013-06-04 16:12:00,
2013-06-04 12:17:00,65.3,43.3,30.15,NNW,337,0.7,1.6,45,0.00,,,0.00,WUHU21623XXSP,2013-06-04 16:17:00,
2013-06-04 12:22:00,65.3,43.3,30.15,NNE,22,1.1,1.6,45,0.00,,,0.00,WUHU21623XXSP,2013-06-04 16:22:00,
2013-06-04 12:27:00,65.3,43.9,30.14,NNW,337,2.2,2.2,46,0.00,,,0.00,WUHU21623XXSP,2013-06-04 16:27:00,
2013-06-04 12:32:00,65.5,44.0,30.14,NE,45,0.0,2.2,46,0.00,,,0.00,WUHU21623XXSP,2013-06-04 16:32:00,
2013-06-04 12:37:00,66.0,44.4,30.14,NE,45,0.0,0.0,48,0.00,,,0.00,WUHU21623XXSP,2013-06-04 16:37:00,
2013-06-04 12:42:00,67.8,45.6,30.14,SSE,157,0.0,0.0,45,0.00,,,0.00,WUHU21623XXSP,2013-06-04 16:42:00,
2013-06-04 12:47:00,67.8,45.0,30.14,SE,135,0.0,0.0,44,0.00,,,0.00,WUHU21623XXSP,2013-06-04 16:47:00,
2013-06-04 12:52:00,67.6,45.4,30.14,SE,135,0.0,0.0,45,0.00,,,0.00,WUHU21623XXSP,2013-06-04 16:52:00,
2013-06-04 12:57:00,66.9,46.0,30.14,NW,315,0.0,0.0,47,0.00,,,0.00,WUHU21623XXSP,2013-06-04 16:57:00,
2013-06-04 13:02:00,67.1,45.6,30.13,NW,315,0.0,0.0,46,0.00,,,0.00,WUHU21623XXSP,2013-06-04 17:02:00,
2013-06-04 13:07:00,67.3,46.3,30.13,NE,45,1.6,2.7,47,0.00,,,0.00,WUHU21623XXSP,2013-06-04 17:07:00,
2013-06-04 13:12:00,67.6,46.0,30.14,NE,45,1.6,2.7,45,0.00,,,0.00,WUHU21623XXSP,2013-06-04 17:12:00,
2013-06-04 13:17:00,67.5,45.3,30.14,NW,315,0.0,4.5,45,0.00,,,0.00,WUHU21623XXSP,2013-06-04 17:17:00,
2013-06-04 13:22:00,67.8,46.2,30.13,WNW,292,0.0,4.5,46,0.00,,,0.00,WUHU21623XXSP,2013-06-04 17:22:00,
2013-06-04 13:27:00,67.8,44.4,30.14,NE,45,0.4,0.9,43,0.00,,,0.00,WUHU21623XXSP,2013-06-04 17:27:00,
2013-06-04 13:32:00,67.8,45.6,30.14,NNW,337,1.6,1.6,45,0.00,,,0.00,WUHU21623XXSP,2013-06-04 17:32:00,
2013-06-04 13:37:00,67.6,44.9,30.14,WNW,292,4.3,4.3,44,0.00,,,0.00,WUHU21623XXSP,2013-06-04 17:37:00,
2013-06-04 13:42:00,68.0,45.2,30.14,North,0,0.0,4.3,44,0.00,,,0.00,WUHU21623XXSP,2013-06-04 17:42:00,
2013-06-04 13:47:00,68.5,45.7,30.14,NW,315,0.7,0.7,44,0.00,,,0.00,WUHU21623XXSP,2013-06-04 17:47:00,
2013-06-04 13:52:00,68.7,45.2,30.14,NW,315,0.0,0.7,43,0.00,,,0.00,WUHU21623XXSP,2013-06-04 17:52:00,
2013-06-04 13:57:00,69.1,46.1,30.15,NW,315,0.7,2.9,44,0.00,,,0.00,WUHU21623XXSP,2013-06-04 17:57:00,
2013-06-04 14:02:00,68.7,45.6,30.14,NNE,22,1.6,2.9,44,0.00,,,0.00,WUHU21623XXSP,2013-06-04 18:02:00,
2013-06-04 14:07:00,68.7,45.8,30.13,NW,315,2.2,2.2,44,0.00,,,0.00,WUHU21623XXSP,2013-06-04 18:07:00,
2013-06-04 14:12:00,68.7,45.2,30.13,NNE,22,0.0,2.2,43,0.00,,,0.00,WUHU21623XXSP,2013-06-04 18:12:00,
2013-06-04 14:17:00,68.7,45.2,30.14,NNE,22,0.0,1.6,43,0.00,,,0.00,WUHU21623XXSP,2013-06-04 18:17:00,
2013-06-04 14:22:00,68.7,45.2,30.14,North,0,0.0,0.0,43,0.00,,,0.00,WUHU21623XXSP,2013-06-04 18:22:00,
2013-06-04 14:27:00,68.5,45.7,30.14,NW,315,3.4,3.4,44,0.00,,,0.00,WUHU21623XXSP,2013-06-04 18:27:00,
2013-06-04 14:32:00,68.9,45.4,30.14,NW,315,5.6,5.6,43,0.00,,,0.00,WUHU21623XXSP,2013-06-04 18:32:00,
2013-06-04 14:37:00,69.3,46.3,30.13,NE,45,2.5,5.6,44,0.00,,,0.00,WUHU21623XXSP,2013-06-04 18:37:00,
2013-06-04 14:42:00,68.9,44.8,30.13,NE,45,0.0,2.5,42,0.00,,,0.00,WUHU21623XXSP,2013-06-04 18:42:00,
2013-06-04 14:47:00,69.1,44.4,30.13,NW,315,0.0,0.0,41,0.00,,,0.00,WUHU21623XXSP,2013-06-04 18:47:00,
2013-06-04 14:52:00,68.9,42.9,30.13,NE,45,1.1,2.0,39,0.00,,,0.00,WUHU21623XXSP,2013-06-04 18:52:00,
2013-06-04 14:57:00,68.9,44.8,30.13,NNE,22,0.0,2.0,42,0.00,,,0.00,WUHU21623XXSP,2013-06-04 18:57:00,
2013-06-04 15:02:00,68.7,44.6,30.14,North,0,0.9,1.6,42,0.00,,,0.00,WUHU21623XXSP,2013-06-04 19:02:00,
2013-06-04 15:07:00,68.7,44.6,30.13,NNE,22,0.2,1.6,42,0.00,,,0.00,WUHU21623XXSP,2013-06-04 19:07:00,
2013-06-04 15:12:00,68.9,44.8,30.13,NNE,22,0.4,2.2,42,0.00,,,0.00,WUHU21623XXSP,2013-06-04 19:12:00,
2013-06-04 15:17:00,68.7,45.2,30.13,ENE,67,0.0,3.6,43,0.00,,,0.00,WUHU21623XXSP,2013-06-04 19:17:00,
2013-06-04 15:22:00,68.7,45.2,30.13,ENE,67,0.0,3.6,43,0.00,,,0.00,WUHU21623XXSP,2013-06-04 19:22:00,
2013-06-04 15:27:00,68.7,44.6,30.13,ENE,67,0.0,0.4,42,0.00,,,0.00,WUHU21623XXSP,2013-06-04 19:27:00,
2013-06-04 15:32:00,68.9,45.4,30.13,ENE,67,0.0,3.6,43,0.00,,,0.00,WUHU21623XXSP,2013-06-04 19:32:00,
2013-06-04 15:37:00,69.1,45.0,30.13,ENE,67,3.6,3.6,42,0.00,,,0.00,WUHU21623XXSP,2013-06-04 19:37:00,
2013-06-04 15:42:00,69.3,45.1,30.13,ESE,112,0.0,3.6,42,0.00,,,0.00,WUHU21623XXSP,2013-06-04 19:42:00,
2013-06-04 15:47:00,69.6,46.0,30.12,ESE,112,0.0,0.9,43,0.00,,,0.00,WUHU21623XXSP,2013-06-04 19:47:00,
2013-06-04 15:52:00,69.4,45.3,30.12,ESE,112,0.0,0.0,42,0.00,,,0.00,WUHU21623XXSP,2013-06-04 19:52:00,
2013-06-04 15:57:00,69.1,45.6,30.12,ESE,112,0.0,0.0,43,0.00,,,0.00,WUHU21623XXSP,2013-06-04 19:57:00,
2013-06-04 16:02:00,69.1,45.6,30.12,ESE,112,0.0,0.0,43,0.00,,,0.00,WUHU21623XXSP,2013-06-04 20:02:00,
2013-06-04 16:07:00,69.6,46.0,30.11,ENE,67,0.0,1.3,43,0.00,,,0.00,WUHU21623XXSP,2013-06-04 20:07:00,
2013-06-04 16:12:00,69.6,45.4,30.12,NE,45,0.7,1.3,42,0.00,,,0.00,WUHU21623XXSP,2013-06-04 20:12:00,
2013-06-04 16:17:00,69.6,46.0,30.11,NE,45,2.5,2.5,43,0.00,,,0.00,WUHU21623XXSP,2013-06-04 20:17:00,
2013-06-04 16:22:00,69.4,45.9,30.11,ENE,67,0.0,2.5,43,0.00,,,0.00,WUHU21623XXSP,2013-06-04 20:22:00,
2013-06-04 16:27:00,69.6,46.6,30.11,ENE,67,0.0,0.0,44,0.00,,,0.00,WUHU21623XXSP,2013-06-04 20:27:00,
2013-06-04 16:32:00,70.0,47.0,30.11,ENE,67,0.0,1.1,44,0.00,,,0.00,WUHU21623XXSP,2013-06-04 20:32:00,
2013-06-04 16:37:00,70.0,47.0,30.11,ENE,67,0.0,1.3,44,0.00,,,0.00,WUHU21623XXSP,2013-06-04 20:37:00,
2013-06-04 16:42:00,70.3,47.3,30.11,ENE,67,0.0,1.3,44,0.00,,,0.00,WUHU21623XXSP,2013-06-04 20:42:00,
2013-06-04 16:47:00,70.3,46.7,30.11,ENE,67,0.0,0.0,43,0.00,,,0.00,WUHU21623XXSP,2013-06-04 20:47:00,
2013-06-04 16:52:00,70.3,47.3,30.11,ENE,67,0.0,0.0,43,0.00,,,0.00,WUHU21623XXSP,2013-06-04 20:52:00,
2013-06-04 16:57:00,70.3,46.7,30.11,ENE,67,0.0,0.4,43,0.00,,,0.00,WUHU21623XXSP,2013-06-04 20:57:00,
2013-06-04 17:02:00,70.5,46.9,30.11,ENE,67,0.0,0.4,44,0.00,,,0.00,WUHU21623XXSP,2013-06-04 21:02:00,
2013-06-04 17:07:00,70.2,46.5,30.11,ENE,67,0.0,1.8,43,0.00,,,0.00,WUHU21623XXSP,2013-06-04 21:07:00,
2013-06-04 17:12:00,70.3,47.1,30.11,NW,315,0.0,1.8,44,0.00,,,0.00,WUHU21623XXSP,2013-06-04 21:12:00,
2013-06-04 17:17:00,70.5,46.9,30.11,NW,315,0.0,1.1,43,0.00,,,0.00,WUHU21623XXSP,2013-06-04 21:17:00,
2013-06-04 17:22:00,70.9,47.2,30.11,WNW,292,0.0,2.2,43,0.00,,,0.00,WUHU21623XXSP,2013-06-04 21:22:00,
2013-06-04 17:27:00,71.2,47.5,30.11,WNW,292,0.0,2.2,43,0.00,,,0.00,WUHU21623XXSP,2013-06-04 21:27:00,
2013-06-04 17:32:00,71.1,47.3,30.11,NW,315,0.0,3.1,43,0.00,,,0.00,WUHU21623XXSP,2013-06-04 21:32:00,
2013-06-04 17:37:00,71.2,47.5,30.11,NNW,337,0.0,3.1,43,0.00,,,0.00,WUHU21623XXSP,2013-06-04 21:37:00,
2013-06-04 17:42:00,70.9,46.6,30.11,North,0,1.8,1.8,42,0.00,,,0.00,WUHU21623XXSP,2013-06-04 21:42:00,
2013-06-04 17:47:00,71.2,47.5,30.11,WNW,292,1.6,1.8,43,0.00,,,0.00,WUHU21623XXSP,2013-06-04 21:47:00,
2013-06-04 17:52:00,71.4,47.7,30.11,NW,315,0.0,1.8,43,0.00,,,0.00,WUHU21623XXSP,2013-06-04 21:52:00,
2013-06-04 17:57:00,71.4,47.7,30.11,WNW,292,0.0,0.0,43,0.00,,,0.00,WUHU21623XXSP,2013-06-04 21:57:00,
2013-06-04 18:02:00,71.8,48.0,30.11,WNW,292,0.0,0.0,43,0.00,,,0.00,WUHU21623XXSP,2013-06-04 22:02:00,
2013-06-04 18:07:00,71.6,48.4,30.11,WNW,292,0.0,0.0,44,0.00,,,0.00,WUHU21623XXSP,2013-06-04 22:07:00,
2013-06-04 18:12:00,71.4,47.1,30.11,WNW,292,0.0,0.0,42,0.00,,,0.00,WUHU21623XXSP,2013-06-04 22:12:00,
2013-06-04 18:18:00,71.4,47.7,30.12,WNW,292,0.0,0.0,43,0.00,,,0.00,WUHU21623XXSP,2013-06-04 22:18:00,
2013-06-04 18:23:00,71.6,47.8,30.11,WNW,292,0.0,0.0,43,0.00,,,0.00,WUHU21623XXSP,2013-06-04 22:23:00,
2013-06-04 18:28:00,71.8,48.0,30.11,WNW,292,0.0,0.0,43,0.00,,,0.00,WUHU21623XXSP,2013-06-04 22:28:00,
2013-06-04 18:33:00,71.4,47.7,30.11,WNW,292,0.0,0.0,43,0.00,,,0.00,WUHU21623XXSP,2013-06-04 22:33:00,
2013-06-04 18:38:00,70.5,46.3,30.11,North,0,1.1,2.0,42,0.00,,,0.00,WUHU21623XXSP,2013-06-04 22:38:00,
2013-06-04 18:43:00,70.3,46.7,30.11,North,0,0.0,2.0,43,0.00,,,0.00,WUHU21623XXSP,2013-06-04 22:43:00,
2013-06-04 18:48:00,70.3,46.7,30.12,NNE,22,1.8,1.8,43,0.00,,,0.00,WUHU21623XXSP,2013-06-04 22:48:00,
2013-06-04 18:53:00,70.3,46.7,30.12,NNE,22,0.0,1.8,43,0.00,,,0.00,WUHU21623XXSP,2013-06-04 22:53:00,
2013-06-04 18:58:00,70.3,46.7,30.12,NNE,22,1.3,1.3,43,0.00,,,0.00,WUHU21623XXSP,2013-06-04 22:58:00,
2013-06-04 19:03:00,70.3,47.3,30.12,NNE,22,0.0,1.3,44,0.00,,,0.00,WUHU21623XXSP,2013-06-04 23:03:00,
2013-06-04 19:08:00,69.8,47.4,30.12,NNE,22,0.0,0.0,45,0.00,,,0.00,WUHU21623XXSP,2013-06-04 23:08:00,
2013-06-04 19:13:00,69.4,47.1,30.12,NNE,22,1.3,1.3,45,0.00,,,0.00,WUHU21623XXSP,2013-06-04 23:13:00,
2013-06-04 19:18:00,69.1,46.7,30.12,NNE,22,0.0,1.3,45,0.00,,,0.00,WUHU21623XXSP,2013-06-04 23:18:00,
2013-06-04 19:23:00,68.7,47.0,30.12,NNE,22,0.0,0.0,46,0.00,,,0.00,WUHU21623XXSP,2013-06-04 23:23:00,
2013-06-04 19:28:00,68.7,47.0,30.13,NNE,22,0.0,0.0,46,0.00,,,0.00,WUHU21623XXSP,2013-06-04 23:28:00,
2013-06-04 19:33:00,68.5,46.9,30.12,NNE,22,1.3,2.7,46,0.00,,,0.00,WUHU21623XXSP,2013-06-04 23:33:00,
2013-06-04 19:38:00,68.4,46.7,30.13,NNE,22,0.0,2.7,46,0.00,,,0.00,WUHU21623XXSP,2013-06-04 23:38:00,
2013-06-04 19:43:00,68.2,47.1,30.12,NNE,22,2.5,2.5,47,0.00,,,0.00,WUHU21623XXSP,2013-06-04 23:43:00,
2013-06-04 19:48:00,68.2,47.1,30.12,NNE,22,0.0,2.5,47,0.00,,,0.00,WUHU21623XXSP,2013-06-04 23:48:00,
2013-06-04 19:53:00,68.0,47.6,30.12,NNE,22,0.0,1.1,48,0.00,,,0.00,WUHU21623XXSP,2013-06-04 23:53:00,
2013-06-04 19:58:00,67.8,47.4,30.12,NNE,22,0.0,0.0,48,0.00,,,0.00,WUHU21623XXSP,2013-06-04 23:58:00,
2013-06-04 20:03:00,67.8,47.4,30.12,NNE,22,0.0,1.3,48,0.00,,,0.00,WUHU21623XXSP,2013-06-05 00:03:00,
2013-06-04 20:08:00,67.5,47.1,30.12,NNE,22,1.1,1.3,48,0.00,,,0.00,WUHU21623XXSP,2013-06-05 00:08:00,
2013-06-04 20:13:00,67.3,46.9,30.12,NNE,22,0.0,1.6,48,0.00,,,0.00,WUHU21623XXSP,2013-06-05 00:13:00,
2013-06-04 20:18:00,67.3,47.5,30.13,NNE,22,0.0,1.6,49,0.00,,,0.00,WUHU21623XXSP,2013-06-05 00:18:00,
2013-06-04 20:23:00,67.1,47.3,30.13,NNE,22,0.0,0.7,49,0.00,,,0.00,WUHU21623XXSP,2013-06-05 00:23:00,
2013-06-04 20:28:00,66.9,47.2,30.13,NNE,22,0.0,0.0,49,0.00,,,0.00,WUHU21623XXSP,2013-06-05 00:28:00,
2013-06-04 20:33:00,66.7,47.0,30.13,NNE,22,0.0,0.0,49,0.00,,,0.00,WUHU21623XXSP,2013-06-05 00:33:00,
2013-06-04 20:38:00,66.6,46.9,30.12,NNE,22,0.0,0.0,49,0.00,,,0.00,WUHU21623XXSP,2013-06-05 00:38:00,
2013-06-04 20:43:00,66.4,47.3,30.13,NNE,22,0.0,0.0,50,0.00,,,0.00,WUHU21623XXSP,2013-06-05 00:43:00,
2013-06-04 20:48:00,66.0,46.9,30.13,NNE,22,0.0,0.0,50,0.00,,,0.00,WUHU21623XXSP,2013-06-05 00:48:00,
2013-06-04 20:53:00,65.8,47.2,30.13,NNE,22,0.0,0.0,51,0.00,,,0.00,WUHU21623XXSP,2013-06-05 00:53:00,
2013-06-04 20:58:00,65.5,46.9,30.13,NNE,22,0.0,0.0,51,0.00,,,0.00,WUHU21623XXSP,2013-06-05 00:58:00,
2013-06-04 21:03:00,65.3,47.2,30.13,NNE,22,0.0,0.0,52,0.00,,,0.00,WUHU21623XXSP,2013-06-05 01:03:00,
2013-06-04 21:08:00,64.9,46.8,30.13,NNE,22,0.0,0.0,52,0.00,,,0.00,WUHU21623XXSP,2013-06-05 01:08:00,
2013-06-04 21:13:00,64.9,47.3,30.13,NNE,22,0.0,0.0,53,0.00,,,0.00,WUHU21623XXSP,2013-06-05 01:13:00,
2013-06-04 21:18:00,64.8,47.1,30.14,NNE,22,0.0,0.0,53,0.00,,,0.00,WUHU21623XXSP,2013-06-05 01:18:00,
2013-06-04 21:23:00,64.6,47.0,30.14,NNE,22,0.0,0.0,53,0.00,,,0.00,WUHU21623XXSP,2013-06-05 01:23:00,
2013-06-04 21:28:00,64.6,47.4,30.14,NNE,22,0.0,0.0,54,0.00,,,0.00,WUHU21623XXSP,2013-06-05 01:28:00,
2013-06-04 21:33:00,64.4,47.4,30.14,NNE,22,0.0,0.0,54,0.00,,,0.00,WUHU21623XXSP,2013-06-05 01:33:00,
2013-06-04 21:38:00,64.2,47.1,30.14,NNE,22,0.0,0.0,54,0.00,,,0.00,WUHU21623XXSP,2013-06-05 01:38:00,
2013-06-04 21:43:00,64.0,47.4,30.14,NNE,22,0.0,0.0,55,0.00,,,0.00,WUHU21623XXSP,2013-06-05 01:43:00,
2013-06-04 21:48:00,63.9,47.3,30.14,ENE,67,0.0,0.0,55,0.00,,,0.00,WUHU21623XXSP,2013-06-05 01:48:00,
2013-06-04 21:53:00,63.3,47.4,30.14,East,90,0.9,1.1,56,0.00,,,0.00,WUHU21623XXSP,2013-06-05 01:53:00,
2013-06-04 21:58:00,63.1,47.1,30.14,ESE,112,0.7,1.1,56,0.00,,,0.00,WUHU21623XXSP,2013-06-05 01:58:00,
2013-06-04 22:03:00,63.0,46.9,30.14,ESE,112,0.0,2.5,56,0.00,,,0.00,WUHU21623XXSP,2013-06-05 02:03:00,
2013-06-04 22:08:00,62.6,46.6,30.14,ESE,112,0.0,2.5,56,0.00,,,0.00,WUHU21623XXSP,2013-06-05 02:08:00,
2013-06-04 22:13:00,62.4,46.9,30.14,ESE,112,0.0,1.1,57,0.00,,,0.00,WUHU21623XXSP,2013-06-05 02:13:00,
2013-06-04 22:18:00,62.4,46.9,30.14,ESE,112,0.0,1.1,57,0.00,,,0.00,WUHU21623XXSP,2013-06-05 02:18:00,
2013-06-04 22:23:00,62.2,46.8,30.14,ESE,112,0.0,0.0,57,0.00,,,0.00,WUHU21623XXSP,2013-06-05 02:23:00,
2013-06-04 22:28:00,61.9,46.5,30.14,SE,135,0.0,0.0,57,0.00,,,0.00,WUHU21623XXSP,2013-06-05 02:28:00,
2013-06-04 22:33:00,61.7,46.9,30.14,SE,135,0.0,0.0,58,0.00,,,0.00,WUHU21623XXSP,2013-06-05 02:33:00,
2013-06-04 22:38:00,61.5,46.6,30.14,SE,135,0.0,0.0,58,0.00,,,0.00,WUHU21623XXSP,2013-06-05 02:38:00,
2013-06-04 22:43:00,61.5,46.6,30.14,SE,135,0.0,0.0,58,0.00,,,0.00,WUHU21623XXSP,2013-06-05 02:43:00,
2013-06-04 22:48:00,61.3,46.9,30.14,SE,135,0.0,0.0,59,0.00,,,0.00,WUHU21623XXSP,2013-06-05 02:48:00,
2013-06-04 22:53:00,61.0,46.8,30.13,SE,135,0.0,0.0,59,0.00,,,0.00,WUHU21623XXSP,2013-06-05 02:53:00,
2013-06-04 22:57:00,61.0,46.6,30.14,SE,135,0.0,0.0,59,0.00,,,0.00,WUHU21623XXSP,2013-06-05 02:57:00,
2013-06-04 23:02:00,60.6,46.3,30.13,SE,135,0.0,0.0,59,0.00,,,0.00,WUHU21623XXSP,2013-06-05 03:02:00,
2013-06-04 23:08:00,60.4,46.6,30.14,SE,135,0.0,0.0,60,0.00,,,0.00,WUHU21623XXSP,2013-06-05 03:08:00,
2013-06-04 23:13:00,60.4,46.6,30.14,SE,135,0.0,0.0,60,0.00,,,0.00,WUHU21623XXSP,2013-06-05 03:13:00,
2013-06-04 23:17:00,60.1,46.2,30.14,SE,135,0.0,0.0,60,0.00,,,0.00,WUHU21623XXSP,2013-06-05 03:17:00,
2013-06-04 23:22:00,59.9,46.0,30.14,SE,135,0.0,0.0,60,0.00,,,0.00,WUHU21623XXSP,2013-06-05 03:22:00,
2013-06-04 23:27:00,59.7,46.3,30.14,SE,135,0.0,0.0,61,0.00,,,0.00,WUHU21623XXSP,2013-06-05 03:27:00,
2013-06-04 23:32:00,59.5,46.5,30.14,SE,135,0.0,0.0,62,0.00,,,0.00,WUHU21623XXSP,2013-06-05 03:32:00,
2013-06-04 23:38:00,59.4,46.3,30.14,SE,135,0.0,0.0,62,0.00,,,0.00,WUHU21623XXSP,2013-06-05 03:38:00,
2013-06-04 23:43:00,59.2,46.1,30.14,SE,135,0.0,0.0,62,0.00,,,0.00,WUHU21623XXSP,2013-06-05 03:43:00,
2013-06-04 23:48:00,59.2,46.1,30.14,SE,135,0.0,0.0,62,0.00,,,0.00,WUHU21623XXSP,2013-06-05 03:48:00,
2013-06-04 23:52:00,58.8,45.8,30.14,SE,135,0.0,0.0,62,0.00,,,0.00,WUHU21623XXSP,2013-06-05 03:52:00,
2013-06-04 23:58:00,58.8,46.2,30.13,SE,135,0.0,0.0,63,0.00,,,0.00,WUHU21623XXSP,2013-06-05 03:58:00,